Weather History for KOVS - January, 2013

Change the Weather History Date:

Wednesday, January 9, 2013

  Actual Average (KPDC) Record (KPDC)
Temperature  
Mean Temperature 31 °F -  
Max Temperature 41 °F 24 °F 53 °F (2002)
Min Temperature 21 °F 7 °F -24 °F (1977)
Degree Days  
Heating Degree Days 34    
Moisture  
Dew Point 24 °F    
Average Humidity 72    
Maximum Humidity 88    
Minimum Humidity 51    
Precipitation  
Precipitation 0.00 in - - ()
Sea Level Pressure  
Sea Level Pressure 30.27 in    
Wind  
Wind Speed 7 mph (SW)    
Max Wind Speed 18 mph    
Max Gust Speed 26 mph    
Visibility 10 miles    
Events      
Averages and records for this station are not official NWS values.
T = Trace of Precipitation, MM = Missing Value Source: NWS Daily Summary

Daily Weather History Graph

Daily Weather History Graph

Search for Another Location

Airport or City:

Trip Planner

Search our weather history database for the weather conditions in past years. The results will help you decide how hot, cold, wet, or windy it might be!

Date:

Astronomy

Jan. 09, 2013 Rise Set
Actual Time 7:33 AM CST 4:46 PM CST
Civil Twilight 7:01 AM CST 5:18 PM CST
Nautical Twilight 6:26 AM CST 5:53 PM CST
Astronomical Twilight 5:52 AM CST 6:28 PM CST
Moon 5:13 AM CST (1/9) 2:48 PM CST (1/9)
Length of Visible Light 10h 16m
Length of Day
9h 12m
Waning Crescent, 6% of the Moon is Illuminated
Jan 9
Waning Crescent
Jan 11
New
Jan 18
First Quarter
Jan 26
Full
Feb 3
Last Quarter

Hourly Weather History & Observations

Time (CST) Temp. Windchill Dew Point Humidity Pressure Visibility Wind Dir Wind Speed Gust Speed Precip Events Conditions
12:53 AM 37.0 °F 30.4 °F 28.9 °F 73% 29.99 in 10.0 mi WSW 9.2 mph - N/A   Clear
1:53 AM 34.0 °F 28.0 °F 27.0 °F 75% 30.02 in 10.0 mi WSW 6.9 mph - N/A   Clear
2:53 AM 32.0 °F 25.6 °F 26.1 °F 79% 30.05 in 10.0 mi SSW 6.9 mph - N/A   Clear
3:53 AM 30.0 °F 22.4 °F 25.0 °F 82% 30.09 in 10.0 mi SSW 8.1 mph - N/A   Clear
4:53 AM 30.0 °F 22.4 °F 25.0 °F 82% 30.11 in 10.0 mi SSW 8.1 mph - N/A   Clear
5:53 AM 30.0 °F 21.7 °F 24.1 °F 79% 30.13 in 10.0 mi SW 9.2 mph - N/A   Clear
6:53 AM 28.9 °F 22.8 °F 24.1 °F 82% 30.15 in 10.0 mi SW 5.8 mph - N/A   Clear
7:53 AM 28.9 °F 22.8 °F 25.0 °F 85% 30.18 in 10.0 mi SW 5.8 mph - N/A   Unknown
8:53 AM 32.0 °F 23.0 °F 25.0 °F 75% 30.20 in 10.0 mi SW 11.5 mph - N/A   Clear
9:53 AM 35.1 °F 26.4 °F 26.1 °F 70% 30.23 in 10.0 mi SW 12.7 mph 21.9 mph N/A   Clear
10:53 AM 37.9 °F 34.4 °F 24.1 °F 57% 30.25 in 10.0 mi Variable 4.6 mph 17.3 mph N/A   Clear
11:53 AM 39.0 °F 33.4 °F 24.1 °F 55% 30.29 in 10.0 mi WSW 8.1 mph 16.1 mph N/A   Clear
12:53 PM 39.9 °F 30.8 °F 24.1 °F 53% 30.33 in 10.0 mi WSW 18.4 mph 26.5 mph N/A   Clear
1:53 PM 39.9 °F 32.9 °F 25.0 °F 55% 30.35 in 10.0 mi WSW 11.5 mph 23.0 mph N/A   Clear
2:53 PM 41.0 °F 33.1 °F 24.1 °F 51% 30.40 in 10.0 mi West 15.0 mph 25.3 mph N/A   Clear
3:53 PM 39.9 °F 35.8 °F 24.1 °F 53% 30.41 in 10.0 mi West 5.8 mph - N/A   Clear
4:53 PM 37.0 °F - 24.1 °F 59% 30.42 in 10.0 mi Calm Calm - N/A   Clear
5:53 PM 30.9 °F - 23.0 °F 72% 30.43 in 10.0 mi Calm Calm - N/A   Clear
6:53 PM 28.9 °F - 23.0 °F 78% 30.45 in 10.0 mi Calm Calm - N/A   Clear
7:53 PM 26.1 °F - 21.9 °F 84% 30.46 in 9.0 mi Calm Calm - N/A   Clear
8:53 PM 21.0 °F - 18.0 °F 88% 30.45 in 9.0 mi Calm Calm - N/A   Clear
9:53 PM 21.0 °F - 18.0 °F 88% 30.45 in 10.0 mi Calm Calm - N/A   Clear
10:53 PM 23.0 °F 18.4 °F 19.9 °F 88% 30.47 in 8.0 mi SW 3.5 mph - N/A   Clear